DW2659 Weather Reports


Display with metric or nautical units.
time (UTC)temp
F
wind
direction
speed
MPH
gust
MPH
rain 1hr
in
rain 24hr
in
rain mn
in
humidity
%
barometer
mb
20260508135404 61 132 2.0 3.0 0.00 0.00 0.00 64 1017.8
20260508134404 61 97 1.0 3.0 0.00 0.00 0.00 64 1017.8
20260508133905 61 110 0.0 0.0 0.00 0.00 0.00 64 1017.8
20260508133404 60 110 0.0 0.0 0.00 0.00 0.00 67 1017.6
20260508132904 59 110 0.0 0.0 0.00 0.00 0.00 68 1017.6
20260508132405 59 110 0.0 0.0 0.00 0.00 0.00 66 1017.6
20260508131904 58 110 1.0 2.0 0.00 0.00 0.00 67 1017.6
20260508131404 57 110 0.0 1.0 0.00 0.00 0.00 70 1017.9
20260508130404 54 110 1.0 2.0 0.00 0.00 0.00 73 1017.9
20260508125903 53 110 1.0 2.0 0.00 0.00 0.00 74 1017.9
20260508125405 52 111 1.0 2.0 0.00 0.00 0.00 78 1017.9
20260508124904 51 273 1.0 1.0 0.00 0.00 0.00 80 1017.9
20260508124404 51 273 1.0 2.0 0.00 0.00 0.00 83 1017.9
20260508123904 50 273 1.0 2.0 0.00 0.00 0.00 86 1017.9
20260508123405 50 273 0.0 2.0 0.00 0.00 0.00 87 1017.9
20260508122904 49 273 0.0 0.0 0.00 0.00 0.00 88 1017.6
20260508122404 49 273 0.0 0.0 0.00 0.00 0.00 88 1017.6
20260508121405 48 273 0.0 0.0 0.00 0.00 0.00 88 1017.4
20260508120904 47 273 0.0 1.0 0.00 0.00 0.00 88 1017.4
20260508120404 47 273 0.0 1.0 0.00 0.00 0.00 88 1017.4
20260508115905 47 273 0.0 1.0 0.00 0.00 0.00 88 1016.7
20260508115403 47 273 0.0 0.0 0.00 0.01 0.00 87 1016.7
20260508114904 46 273 0.0 0.0 0.00 0.01 0.00 87 1016.7
20260508114405 46 273 0.0 0.0 0.00 0.01 0.00 87 1016.7
20260508113904 46 273 0.0 0.0 0.00 0.02 0.00 87 1016.7
20260508113404 46 273 0.0 0.0 0.00 0.02 0.00 87 1016.7
20260508112404 46 273 0.0 0.0 0.00 0.02 0.00 87 1016.4
20260508111904 46 273 0.0 0.0 0.00 0.02 0.00 87 1016.4
20260508111405 46 273 0.0 0.0 0.00 0.02 0.00 87 1016.2
20260508110404 45 273 0.0 0.0 0.00 0.05 0.00 87 1016.2
20260508105405 46 273 0.0 0.0 0.00 0.09 0.00 86 1016.1
20260508104403 45 273 0.0 0.0 0.00 0.10 0.00 86 1015.7
20260508103904 45 273 0.0 0.0 0.00 0.11 0.00 86 1015.7
20260508102903 46 273 0.0 0.0 0.00 0.13 0.00 86 1015.3
20260508102404 46 273 0.0 0.0 0.00 0.14 0.00 86 1015.3
20260508101902 46 273 0.0 0.0 0.00 0.16 0.00 86 1015.3
20260508101402 46 273 0.0 0.0 0.00 0.17 0.00 86 1015.3
20260508100903 46 273 0.0 0.0 0.00 0.17 0.00 86 1015.3
20260508100403 46 273 0.0 0.0 0.00 0.17 0.00 86 1015.3
20260508095902 46 273 0.0 0.0 0.00 0.18 0.00 86 1015.3
20260508095403 46 273 0.0 0.0 0.00 0.19 0.00 86 1015.3
20260508094402 46 273 0.0 0.0 0.00 0.20 0.00 86 1015.1
20260508093903 46 273 0.0 0.0 0.00 0.22 0.00 86 1015.1
20260508093402 46 273 0.0 0.0 0.00 0.24 0.00 86 1015.1
20260508092903 46 273 0.0 0.0 0.00 0.30 0.00 86 1015.1
20260508092402 46 273 0.0 0.0 0.00 0.32 0.00 86 1015.1
20260508091903 46 273 0.0 0.0 0.00 0.32 0.00 86 1015.1
20260508090403 46 273 0.0 1.0 0.00 0.32 0.00 86 1015.1
20260508085902 46 273 0.0 0.0 0.00 0.32 0.00 86 1015.1
20260508085403 46 273 0.0 0.0 0.00 0.33 0.00 86 1015.1
20260508084903 47 273 0.0 0.0 0.00 0.35 0.00 86 1015.1
20260508084402 46 273 0.0 0.0 0.00 0.36 0.00 86 1015.0
20260508083904 47 273 0.0 1.0 0.00 0.36 0.00 86 1015.0
20260508083402 47 273 0.0 1.0 0.00 0.36 0.00 86 1015.0
20260508082903 47 273 0.0 1.0 0.00 0.36 0.00 86 1015.0
20260508082404 47 273 0.0 0.0 0.00 0.36 0.00 86 1015.0
20260508081903 47 273 0.0 0.0 0.00 0.36 0.00 86 1015.0
20260508081403 47 273 0.0 0.0 0.00 0.36 0.00 86 1015.2
20260508080903 47 273 0.0 0.0 0.00 0.36 0.00 86 1015.2
20260508080403 47 273 0.0 0.0 0.00 0.36 0.00 86 1015.2
20260508074903 47 273 0.0 0.0 0.00 0.38 0.00 86 1015.2
20260508074403 47 273 0.0 0.0 0.00 0.38 0.00 86 1015.2
20260508073904 47 273 0.0 0.0 0.00 0.38 0.00 86 1015.2
20260508073403 47 273 0.0 0.0 0.00 0.38 0.00 86 1015.2
20260508072902 48 273 0.0 0.0 0.00 0.38 0.00 85 1015.1
20260508072404 48 273 0.0 0.0 0.00 0.38 0.00 85 1015.1
20260508071903 48 273 0.0 0.0 0.00 0.38 0.00 86 1015.1
20260508071403 48 273 0.0 0.0 0.00 0.38 0.00 86 1015.3
20260508070902 48 273 0.0 0.0 0.00 0.38 0.00 86 1015.3
20260508070404 48 273 0.0 0.0 0.00 0.38 0.00 86 1015.3
20260508065903 48 273 0.0 1.0 0.00 0.38 0.00 85 1015.4
20260508065403 48 273 0.0 0.0 0.00 0.38 0.00 85 1015.4
20260508064904 48 273 0.0 0.0 0.00 0.38 0.00 85 1015.4
20260508064403 48 273 0.0 0.0 0.00 0.39 0.00 85 1015.4
20260508063903 49 273 0.0 1.0 0.00 0.39 0.00 85 1015.4
20260508063404 49 273 0.0 0.0 0.00 0.39 0.00 85 1015.4
20260508062902 49 273 0.0 0.0 0.00 0.39 0.00 85 1015.5
20260508062402 49 273 0.0 1.0 0.00 0.39 0.00 85 1015.7
20260508061904 49 273 0.0 0.0 0.00 0.39 0.00 85 1015.7
20260508060903 49 273 0.0 0.0 0.00 0.39 0.00 85 1015.6
20260508060404 49 273 0.0 0.0 0.00 0.39 0.00 85 1015.5
20260508055902 49 273 0.0 1.0 0.00 0.39 0.00 85 1015.5
20260508054403 50 273 0.0 1.0 0.00 0.57 0.00 85 1015.5
20260508053902 50 273 0.0 1.0 0.00 0.61 0.00 85 1015.5
20260508053403 50 273 0.0 0.0 0.00 0.61 0.00 85 1015.5
20260508052903 50 273 0.0 0.0 0.00 0.61 0.00 85 1015.2
20260508052403 50 273 0.0 1.0 0.00 0.61 0.00 85 1015.2
20260508051904 50 273 0.0 0.0 0.00 0.62 0.00 85 1015.3
20260508051403 50 273 0.0 0.0 0.00 0.73 0.00 85 1015.3
20260508050903 51 273 0.0 0.0 0.00 0.74 0.00 84 1015.3
20260508050402 51 273 0.0 2.0 0.00 0.75 0.00 84 1015.3
20260508045904 51 273 0.0 1.0 0.00 0.75 0.00 84 1015.4
20260508045403 51 273 0.0 1.0 0.00 0.75 0.00 85 1015.4
20260508044903 51 273 0.0 2.0 0.00 0.75 0.00 85 1015.4
20260508044404 51 273 0.0 1.0 0.00 0.77 0.00 85 1015.3
20260508043903 51 273 0.0 0.0 0.00 0.81 0.00 84 1015.3
20260508042403 51 273 0.0 0.0 0.00 0.86 0.00 84 1015.3
20260508041902 52 273 0.0 0.0 0.00 0.86 0.00 84 1015.3
20260508041404 52 273 0.0 0.0 0.00 0.86 0.00 83 1015.2
20260508040903 52 273 0.0 0.0 0.00 0.86 0.00 83 1015.2
20260508040403 52 273 0.0 0.0 0.00 0.87 0.00 83 1015.2
20260508035403 53 273 0.0 0.0 0.00 1.02 0.96 83 1015.0
20260508034903 53 273 0.0 0.0 0.00 1.03 0.96 83 1015.0
20260508034404 53 273 0.0 0.0 0.00 1.10 0.96 82 1015.0
20260508033903 53 273 0.0 0.0 0.00 1.13 0.96 82 1015.0
20260508032904 54 260 0.0 0.0 0.00 1.15 0.96 82 1015.0
20260508032403 54 243 0.0 0.0 0.00 1.15 0.96 81 1015.0
20260508031903 54 243 0.0 0.0 0.00 1.15 0.96 81 1014.8
20260508031404 54 243 0.0 1.0 0.00 1.15 0.96 81 1014.8
20260508030403 55 243 0.0 1.0 0.00 1.15 0.96 81 1014.8
20260508025904 55 243 0.0 1.0 0.00 1.15 0.96 81 1014.8
20260508024903 55 243 1.0 2.0 0.00 1.15 0.96 80 1014.8
20260508024405 55 243 1.0 3.0 0.00 1.16 0.96 81 1014.6
20260508023403 55 221 0.0 1.0 0.00 1.16 0.96 82 1014.6
20260508022904 55 221 1.0 2.0 0.00 1.16 0.96 82 1014.6
20260508022403 55 221 0.0 1.0 0.00 1.16 0.96 82 1014.6
20260508021903 55 221 0.0 1.0 0.00 1.16 0.96 81 1014.6
20260508020903 55 221 0.0 1.0 0.00 1.16 0.96 81 1014.6
20260508020403 56 221 0.0 0.0 0.00 1.16 0.96 81 1014.5
20260508015904 56 221 0.0 0.0 0.00 1.16 0.96 81 1014.5
20260508015403 56 221 0.0 1.0 0.00 1.16 0.96 81 1014.4
20260508014903 56 221 0.0 1.0 0.00 1.16 0.96 81 1014.4
20260508014404 56 221 0.0 0.0 0.00 1.16 0.96 81 1014.2
20260508013403 57 221 0.0 2.0 0.00 1.16 0.96 80 1014.0
20260508012905 57 214 1.0 3.0 0.00 1.16 0.96 80 1013.9
20260508011903 57 294 0.0 2.0 0.00 1.16 0.96 80 1013.9
20260508011404 57 294 0.0 1.0 0.00 1.16 0.96 79 1013.7
20260508010903 58 294 0.0 1.0 0.00 1.16 0.96 78 1013.7
20260508010403 58 294 0.0 0.0 0.00 1.16 0.96 79 1013.7
20260508005904 58 294 0.0 0.0 0.00 1.16 0.96 79 1013.5
20260508005403 58 294 0.0 0.0 0.00 1.16 0.96 79 1013.5
20260508004903 59 294 0.0 0.0 0.00 1.16 0.96 79 1013.5
20260508004404 59 294 0.0 0.0 0.00 1.16 0.96 79 1013.5
20260508003903 59 294 0.0 1.0 0.00 1.16 0.96 79 1013.5
20260508003403 59 294 0.0 1.0 0.00 1.16 0.96 79 1013.4
20260508002403 60 317 0.0 1.0 0.00 1.16 0.96 79 1013.4
20260508001404 60 317 1.0 2.0 0.00 1.17 0.96 79 1013.2
20260508000404 61 5 1.0 2.0 0.00 1.27 0.96 78 1013.2
20260507235404 62 5 0.0 1.0 0.00 1.28 0.96 76 1013.0
20260507234903 62 5 0.0 1.0 0.00 1.28 0.96 75 1012.9
20260507234404 62 5 0.0 0.0 0.00 1.28 0.96 75 1012.9
20260507233903 63 5 0.0 0.0 0.00 1.28 0.96 74 1012.9
20260507232905 64 5 0.0 0.0 0.00 1.28 0.96 73 1012.9
20260507232403 64 5 0.0 1.0 0.00 1.28 0.96 72 1012.9
20260507231903 65 5 0.0 1.0 0.00 1.28 0.96 71 1012.9
20260507231404 65 5 0.0 1.0 0.00 1.29 0.96 70 1012.8
20260507230903 66 5 1.0 2.0 0.00 1.30 0.96 70 1012.8
20260507225403 66 113 0.0 1.0 0.00 1.42 0.96 67 1012.7
20260507224904 66 113 0.0 1.0 0.00 1.43 0.96 66 1012.7
20260507224404 66 113 0.0 1.0 0.00 1.44 0.96 65 1012.7
20260507223904 67 113 0.0 2.0 0.00 1.49 0.96 64 1012.7
20260507223404 67 22 1.0 2.0 0.00 1.52 0.96 66 1012.7
20260507222904 67 23 1.0 2.0 0.00 1.53 0.96 66 1012.7
20260507221403 67 156 0.0 2.0 0.00 1.56 0.96 66 1012.8
20260507220904 67 73 1.0 2.0 0.00 1.57 0.96 65 1012.8
20260507220404 67 146 0.0 3.0 0.00 1.57 0.96 64 1012.8
20260507215904 67 101 1.0 3.0 0.00 1.58 0.96 66 1012.7
20260507215405 67 72 1.0 5.0 0.00 1.58 0.96 66 1012.7
20260507214903 67 306 0.0 1.0 0.00 1.58 0.96 70 1012.7
20260507214404 67 306 0.0 0.0 0.00 1.58 0.96 69 1012.7
20260507213904 66 306 0.0 1.0 0.00 1.58 0.96 67 1012.7
20260507212905 67 36 0.0 1.0 0.00 1.58 0.96 66 1012.7
20260507211903 68 44 1.0 3.0 0.00 1.58 0.96 64 1012.5
20260507211403 67 11 0.0 1.0 0.00 1.58 0.96 64 1012.4
20260507210904 67 11 0.0 1.0 0.00 1.58 0.96 64 1012.4
20260507210404 67 11 0.0 2.0 0.00 1.58 0.96 65 1012.4
20260507205904 67 11 1.0 2.0 0.00 1.58 0.96 65 1012.4
20260507204904 67 28 1.0 3.0 0.00 1.58 0.96 63 1012.4
20260507204403 67 64 2.0 3.0 0.00 1.58 0.96 64 1012.1
20260507203905 67 42 2.0 3.0 0.00 1.59 0.96 64 1012.1
20260507203403 68 33 2.0 3.0 0.00 1.60 0.96 61 1012.1
20260507202903 68 35 1.0 3.0 0.00 1.65 0.96 62 1012.2
20260507202404 67 78 2.0 3.0 0.00 1.65 0.96 66 1012.2
20260507201904 66 68 1.0 3.0 0.00 1.65 0.96 62 1012.2
20260507201403 66 78 1.0 3.0 0.00 1.65 0.96 65 1012.4
20260507200905 66 9 1.0 2.0 0.00 1.68 0.96 66 1012.4
20260507200403 65 61 1.0 2.0 0.00 1.68 0.96 66 1012.4
20260507195904 66 61 1.0 2.0 0.00 1.69 0.96 66 1012.7
20260507195403 66 61 0.0 1.0 0.00 1.69 0.96 66 1012.7
20260507193903 66 11 1.0 2.0 0.00 1.75 0.96 66 1012.7
20260507192904 67 12 1.0 2.0 0.00 2.17 0.96 61 1012.9
20260507191905 68 27 1.0 3.0 0.00 2.18 0.96 61 1012.9
20260507191403 68 12 1.0 3.0 0.00 2.18 0.96 60 1012.9
20260507190904 68 50 3.0 5.0 0.00 2.18 0.96 63 1012.9
20260507190405 68 15 1.0 3.0 0.00 2.18 0.96 64 1012.9
20260507185904 67 26 2.0 6.0 0.00 2.18 0.96 62 1012.9
20260507185403 67 13 1.0 5.0 0.00 2.18 0.96 66 1012.9
20260507184905 67 9 2.0 3.0 0.00 2.18 0.96 65 1012.9
20260507184403 67 276 2.0 3.0 0.00 2.18 0.96 68 1012.9
20260507183904 66 43 2.0 3.0 0.00 2.18 0.96 68 1012.9
20260507183405 66 355 1.0 3.0 0.00 2.18 0.96 65 1012.9
20260507182903 65 0 2.0 3.0 0.00 2.18 0.96 69 1012.9
20260507182403 65 3 2.0 3.0 0.00 2.18 0.96 68 1012.9
20260507181905 64 40 1.0 3.0 0.00 2.18 0.96 69 1012.9
20260507181403 64 56 1.0 3.0 0.00 2.18 0.96 70 1012.9
20260507180904 64 38 1.0 3.0 0.00 2.18 0.96 70 1012.9
20260507180405 65 43 2.0 3.0 0.00 2.18 0.96 67 1012.9
20260507175903 66 62 2.0 3.0 0.00 2.18 0.96 69 1013.2
20260507175404 65 34 2.0 3.0 0.00 2.18 0.96 69 1013.4
20260507174905 65 57 2.0 3.0 0.00 2.18 0.96 72 1013.4
20260507174403 65 41 1.0 3.0 0.00 2.18 0.96 70 1013.4
20260507173904 64 45 1.0 5.0 0.00 2.18 0.96 74 1013.4
20260507173405 63 53 2.0 3.0 0.00 2.18 0.96 73 1013.4
20260507172903 64 22 2.0 3.0 0.00 2.18 0.96 73 1013.5
20260507171905 64 127 0.0 3.0 0.00 2.18 0.96 71 1013.5
20260507171403 63 12 2.0 3.0 0.00 2.18 0.96 72 1013.3
20260507170903 64 12 2.0 5.0 0.00 2.18 0.96 73 1013.3
20260507170403 64 0 2.0 3.0 0.00 2.18 0.96 73 1013.3
20260507165905 64 39 2.0 3.0 0.00 2.18 0.96 75 1013.2
20260507165404 63 34 1.0 3.0 0.00 2.18 0.96 78 1013.2
20260507164903 62 18 1.0 2.0 0.00 2.18 0.96 75 1013.5
20260507164405 61 25 1.0 3.0 0.00 2.18 0.96 77 1013.5
20260507163904 61 43 2.0 3.0 0.00 2.18 0.96 77 1013.5
20260507162905 60 68 2.0 3.0 0.00 2.18 0.96 79 1013.4
20260507162404 60 82 1.0 3.0 0.00 2.18 0.96 80 1013.4
20260507161903 59 2 1.0 3.0 0.00 2.18 0.96 80 1013.4
20260507161404 58 19 2.0 5.0 0.00 2.18 0.96 80 1013.8
20260507160904 58 18 1.0 5.0 0.00 2.18 0.96 81 1013.8
20260507160404 58 36 1.0 3.0 0.00 2.18 0.96 81 1013.8
20260507155904 58 289 2.0 3.0 0.00 2.18 0.96 81 1013.5
20260507155403 58 23 2.0 6.0 0.00 2.18 0.96 80 1013.5
20260507154904 59 357 2.0 5.0 0.00 2.18 0.96 80 1013.5
20260507154403 59 5 1.0 3.0 0.00 2.18 0.96 81 1013.0
20260507153905 59 10 1.0 3.0 0.00 2.18 0.96 81 1013.0
20260507153404 60 9 1.0 2.0 0.00 2.18 0.96 81 1013.0
20260507152903 60 4 2.0 3.0 0.00 2.18 0.96 81 1012.8
20260507151904 60 28 1.0 3.0 0.00 2.18 0.96 82 1012.8
20260507151404 60 11 1.0 2.0 0.00 2.18 0.96 83 1012.5
20260507150904 60 51 1.0 2.0 0.00 2.18 0.96 83 1012.5
20260507150404 60 9 1.0 3.0 0.00 2.19 0.96 83 1012.5
20260507145906 60 5 1.0 3.0 0.00 2.22 0.96 85 1012.5
20260507145405 60 344 1.0 3.0 0.00 2.23 0.96 85 1012.5
20260507144903 60 25 1.0 3.0 0.00 2.25 0.96 87 1012.8
20260507144404 59 352 1.0 3.0 0.00 2.26 0.96 87 1012.8
20260507143905 59 5 2.0 3.0 0.00 2.27 0.96 87 1012.8
20260507143404 59 54 1.0 3.0 0.00 2.28 0.96 88 1012.8
20260507142904 59 3 1.0 3.0 0.00 2.30 0.96 88 1012.8
20260507142403 59 9 1.0 2.0 0.00 2.31 0.96 89 1012.8
20260507141904 58 14 1.0 3.0 0.00 2.31 0.96 89 1012.8
20260507141404 58 19 1.0 3.0 0.00 2.31 0.96 89 1012.8
20260507140904 57 5 1.0 2.0 0.00 2.32 0.96 89 1012.8
20260507140406 57 5 1.0 3.0 0.00 2.32 0.96 88 1012.8
20260507135903 57 357 1.0 3.0 0.00 2.32 0.96 88 1012.6